Location: Kerb�bon
(47.7970°N, 3.3487°W)
Time: 11:40:24
(UTC+00:00)

USA 308 - Pass Details

Date: 12 May 2021
Orbit: 568 x 576 km, 54.0° (Epoch: 10 May)

Event Time Altitude Azimuth Distance (km) Brightness Sun altitude
Rises 21:21:19 0° 299° (WNW) 2,785 7.9 -13.9°
Reaches altitude 10° 21:23:34 10° 299° (WNW) 1,885 6.7 -14.1°
Maximum altitude 21:27:52 80° 213° (SSW) 588 2.9 -14.6°
Enters shadow 21:30:15 26° 128° (SE) 1,156 3.9 -14.8°
